Regional Weather Roundup
Issued by NWS Albany, NY

Home | Current Version | Previous Version | Text Only | Print | Product List | Glossary On
Versions: 1 2 3 4 5 6 7 8 9 10 11 12 13 14 15 16 17 18 19 20 21 22 23 24 25 26 27 28 29 30 31 32 33 34 35 36 37 38 39 40 41 42 43 44 45 46 47 48 49 50
000
ASUS41 KALY 021310
RWRALY

NEW YORK STATE HOURLY WEATHER ROUNDUP
NATIONAL WEATHER SERVICE ALBANY NY
800 AM EST MON MAR 02 2015

NOTE: "FAIR" INDICATES FEW OR NO CLOUDS BELOW 12,000 FEET WITH NO
SIGNIFICANT WEATHER AND/OR NO OBSTRUCTIONS TO VISIBILITY.

NYZ032-033-038>043-046>054-057>066-NYZ062>081-021400-
EAST


CITY           SKY/WX    TMP DP  RH WIND       PRES   REMARKS
ALBANY         MOSUNNY   26  16  65 W18G26    30.05R WCI  13
GLENS FALLS    CLOUDY    20  18  92 NE3       30.01R FOG
POUGHKEEPSIE   PTSUNNY   25  21  85 N3        30.06R
NEWBURGH       PTSUNNY   27  25  93 W12       30.06R WCI  16
MONTGOMERY     PTSUNNY   30  20  66 W12G21    30.06R WCI  20
WHITE PLAINS   CLOUDY    31  24  75 NW13      30.04R WCI  21
ISLIP          CLOUDY    30  27  88 W9        30.04R FOG     WCI  22
NEW YORK CITY  CLOUDY    32  27  81 NW16      30.08R WCI  21
CENTRAL PARK   CLOUDY    33  25  72 VRB6      30.10R HAZE    WCI  28
$$

NYZ005>009-017-018-044>046-055-056-021400-
CENTRAL


CITY           SKY/WX    TMP DP  RH WIND       PRES   REMARKS
FULTON         LGT SNOW  22  18  85 SW10      30.14R VSB 3/4 WCI  11
SYRACUSE       LGT SNOW  17  17  98 W12       30.14R FOG     WCI   4
ROME           LGT SNOW  19  16  88 W8        30.13R FOG     WCI   9
ELMIRA         CLOUDY    23  14  68 W13G22    30.15R WCI  11
BINGHAMTON     LGT SNOW  19  15  84 W10G20    30.07R FOG     WCI   7
MONTICELLO     CLOUDY    25  21  86 NW14G21   30.03R WCI  13
$$

NYZ026>034-041>043-021400-
NORTH


CITY           SKY/WX    TMP DP  RH WIND       PRES   REMARKS
WATERTOWN      LGT SNOW  22  18  85 SW7       30.11R VSB 3/4 WCI  13
FORT DRUM      NOT AVBL
MASSENA        CLOUDY    20  16  84 SW9       30.05R WCI   9
SARANAC LAKE   LGT SNOW  16  11  80 W8        29.92R WCI   5
PLATTSBURGH    CLOUDY    23  14  68 NW9       30.00R WCI  13
$$

NYZ001>004-010>016-019>021-021400-
WEST


CITY           SKY/WX    TMP DP  RH WIND       PRES   REMARKS
NIAGARA FALLS  PTSUNNY   20  15  81 W17       30.22R WCI   5
BUFFALO        LGT SNOW  20  15  81 W16G28    30.22R WCI   6
DUNKIRK        CLOUDY    20  17  88 W18G28    30.29R FOG     WCI   5
JAMESTOWN      CLOUDY    19  14  79 W13G20    30.20R WCI   7
WELLSVILLE     LGT SNOW  18  13  80 W22G29    30.13R WCI   1
ROCHESTER      LGT SNOW  22  16  78 W13G22    30.18R WCI  10
PENN YAN       LGT SNOW  22  14  71 SW9       30.15R WCI  12
$$

             KEY
       WCI = WIND CHILL INDEX
       VSB = VISIBILITY
       HX  = HEAT INDEX
$$



USA.gov is the U.S. government's official web portal to all federal, state and local government web resources and services.